ANA840 RJTT-RJFF

Flight info

Callsign ANA840
Flight time N/A
Altitude 34000
Route TIARA GUSRO Y20 KIRIN
Aircraft B77W/H-SDE1E2E3FGHIJ2J3J4J5M1RWXY/LB1D1

Departure

Time N/A
Airport Tokyo Haneda International Airport (RJTT)

Arrival

Time 2026-04-28 19:43
Airport Fukuoka Airport (RJFF)
Time Latitude Longitude Altitude Speed Heading
2026-04-28 19:21 34.26215 131.31982 22149 ft 357 kts 255°
2026-04-28 19:21 34.25543 131.29108 21609 ft 354 kts 255°
2026-04-28 19:22 34.24880 131.26277 21053 ft 352 kts 255°
2026-04-28 19:22 34.24436 131.24388 20679 ft 351 kts 255°
2026-04-28 19:22 34.23551 131.20616 19931 ft 348 kts 255°
2026-04-28 19:22 34.22899 131.17844 19378 ft 346 kts 255°
2026-04-28 19:23 34.22240 131.15042 18811 ft 344 kts 255°
2026-04-28 19:23 34.21594 131.12299 18266 ft 341 kts 255°
2026-04-28 19:23 34.20946 131.09552 17713 ft 339 kts 256°
2026-04-28 19:23 34.20307 131.06845 17167 ft 337 kts 255°
2026-04-28 19:24 34.19667 131.04135 16622 ft 336 kts 255°
2026-04-28 19:24 34.18984 131.01447 16067 ft 334 kts 251°
2026-04-28 19:24 34.18111 130.98853 15518 ft 332 kts 248°
2026-04-28 19:24 34.17205 130.96321 14968 ft 331 kts 248°
2026-04-28 19:25 34.16290 130.93771 14425 ft 328 kts 248°
2026-04-28 19:25 34.15400 130.91278 13886 ft 326 kts 248°
2026-04-28 19:25 34.14505 130.88768 13353 ft 324 kts 248°
2026-04-28 19:25 34.13522 130.86368 12838 ft 323 kts 240°
2026-04-28 19:26 34.12105 130.84235 12307 ft 325 kts 228°
2026-04-28 19:26 34.10340 130.82596 12039 ft 321 kts 215°
2026-04-28 19:26 34.08246 130.81479 12020 ft 336 kts 203°
2026-04-28 19:26 34.05966 130.80809 11901 ft 339 kts 199°
2026-04-28 19:27 34.03646 130.80220 11658 ft 338 kts 198°
2026-04-28 19:27 34.01334 130.79662 11500 ft 338 kts 197°
2026-04-28 19:27 33.99052 130.79120 11379 ft 337 kts 197°
2026-04-28 19:27 33.96755 130.78578 11266 ft 336 kts 197°
2026-04-28 19:28 33.94459 130.78038 11154 ft 335 kts 197°
2026-04-28 19:28 33.92165 130.77499 11024 ft 334 kts 197°
2026-04-28 19:28 33.89877 130.76961 10915 ft 335 kts 197°
2026-04-28 19:28 33.87575 130.76422 10806 ft 334 kts 197°
2026-04-28 19:29 33.85272 130.75882 10699 ft 334 kts 197°
2026-04-28 19:29 33.83765 130.75529 10622 ft 334 kts 197°
2026-04-28 19:29 33.80720 130.74815 10478 ft 330 kts 197°
2026-04-28 19:29 33.78507 130.74303 10351 ft 316 kts 197°
2026-04-28 19:30 33.76395 130.73811 10253 ft 303 kts 197°
2026-04-28 19:30 33.74362 130.73338 10151 ft 290 kts 198°
2026-04-28 19:30 33.72409 130.72882 10054 ft 277 kts 198°
2026-04-28 19:30 33.70575 130.72452 9967 ft 266 kts 198°
2026-04-28 19:31 33.68811 130.72038 9743 ft 263 kts 198°
2026-04-28 19:31 33.67030 130.71620 9489 ft 261 kts 198°
2026-04-28 19:31 33.65237 130.71202 9228 ft 261 kts 198°
2026-04-28 19:31 33.63459 130.70787 9014 ft 260 kts 198°
2026-04-28 19:32 33.61689 130.70375 8771 ft 259 kts 198°
2026-04-28 19:32 33.59917 130.69961 8540 ft 261 kts 197°
2026-04-28 19:32 33.58107 130.69540 8308 ft 261 kts 197°
2026-04-28 19:32 33.56334 130.69128 8070 ft 261 kts 197°
2026-04-28 19:33 33.54537 130.68710 7861 ft 262 kts 197°
2026-04-28 19:33 33.52750 130.68295 7617 ft 261 kts 197°
2026-04-28 19:33 33.50975 130.67883 7385 ft 260 kts 197°
2026-04-28 19:33 33.49176 130.67467 7149 ft 261 kts 196°
2026-04-28 19:34 33.47362 130.67415 6981 ft 264 kts 177°
2026-04-28 19:34 33.45603 130.67824 6945 ft 253 kts 173°
2026-04-28 19:34 33.43928 130.68277 6929 ft 242 kts 172°
2026-04-28 19:34 33.42282 130.68723 6782 ft 240 kts 173°
2026-04-28 19:35 33.40660 130.69159 6496 ft 240 kts 172°
2026-04-28 19:35 33.39021 130.69592 6187 ft 240 kts 175°
2026-04-28 19:35 33.37420 130.69502 5798 ft 227 kts 204°
2026-04-28 19:35 33.36145 130.68503 5438 ft 217 kts 231°
2026-04-28 19:36 33.35236 130.67049 5089 ft 218 kts 240°
2026-04-28 19:36 33.34449 130.65515 4733 ft 216 kts 242°
2026-04-28 19:36 33.33984 130.63853 4405 ft 214 kts 270°
2026-04-28 19:36 33.34299 130.62114 4076 ft 213 kts 299°
2026-04-28 19:37 33.35308 130.60869 3842 ft 211 kts 326°
2026-04-28 19:37 33.36136 130.60261 3813 ft 209 kts 329°
2026-04-28 19:37 33.37844 130.59100 3805 ft 212 kts 330°
2026-04-28 19:37 33.39138 130.58238 3804 ft 211 kts 330°
2026-04-28 19:38 33.40403 130.57397 3802 ft 201 kts 330°
2026-04-28 19:38 33.41623 130.56583 3591 ft 199 kts 330°
2026-04-28 19:38 33.42818 130.55777 3340 ft 198 kts 330°
2026-04-28 19:38 33.44016 130.54967 3080 ft 198 kts 331°
2026-04-28 19:39 33.45225 130.54147 2792 ft 193 kts 331°
2026-04-28 19:39 33.46336 130.53392 2579 ft 184 kts 331°
2026-04-28 19:39 33.47432 130.52647 2340 ft 173 kts 332°
2026-04-28 19:39 33.48439 130.51964 2116 ft 162 kts 333°
2026-04-28 19:40 33.49399 130.51317 1909 ft 151 kts 333°
2026-04-28 19:40 33.50279 130.50720 1716 ft 144 kts 333°
2026-04-28 19:40 33.51126 130.50142 1521 ft 138 kts 334°
2026-04-28 19:40 33.51976 130.49565 1336 ft 138 kts 334°
2026-04-28 19:41 33.52803 130.49004 1142 ft 140 kts 333°
2026-04-28 19:41 33.53664 130.48421 956 ft 142 kts 333°
2026-04-28 19:41 33.54536 130.47830 753 ft 145 kts 332°
2026-04-28 19:41 33.55381 130.47255 500 ft 134 kts 332°
2026-04-28 19:42 33.56200 130.46701 336 ft 137 kts 331°
2026-04-28 19:42 33.57027 130.46138 185 ft 134 kts 331°
2026-04-28 19:42 33.57818 130.45598 50 ft 121 kts 331°
2026-04-28 19:42 33.58265 130.45293 48 ft 95 kts 330°
2026-04-28 19:43 33.58790 130.44934 48 ft 47 kts 331°
2026-04-28 19:43 33.59037 130.44763 48 ft 35 kts 323°
2026-04-28 19:43 33.59152 130.44615 48 ft 17 kts 303°
2026-04-28 19:43 33.59209 130.44499 48 ft 16 kts 300°
2026-04-28 19:44 33.59201 130.44362 48 ft 15 kts 244°
2026-04-28 19:44 33.59112 130.44324 48 ft 17 kts 159°
2026-04-28 19:44 33.58989 130.44400 48 ft 22 kts 152°
2026-04-28 19:44 33.58850 130.44498 48 ft 22 kts 150°
2026-04-28 19:45 33.58737 130.44574 48 ft 12 kts 150°
2026-04-28 19:45 33.58693 130.44588 48 ft 4 kts 208°
2026-04-28 19:45 33.58668 130.44556 48 ft 5 kts 238°
2026-04-28 19:45 33.58648 130.44516 48 ft 1 kts 240°
2026-04-28 19:46 33.58641 130.44501 48 ft 2 kts 240°
2026-04-28 19:46 33.58635 130.44487 48 ft 1 kts 240°
2026-04-28 19:46 33.58631 130.44479 48 ft 0 kts 240°